Location: G�ndlingen
(48.0142°N, 7.6396°E)
Time: 02:38:57
(UTC+00:00)

Cosmos 1943 Rocket - Pass Details

Date: 05 July 2020
Orbit: 811 x 845 km, 71.0° (Epoch: 04 August)

Event Time Altitude Azimuth Distance (km) Brightness Sun altitude
Rises 22:52:50 0° 334° (NNW) 3,416 6.8 -18.7°
Reaches altitude 10° 22:55:23 10° 340° (NNW) 2,477 5.8 -18.8°
Maximum altitude 23:00:54 50° 56° (NE) 1,073 2.9 -18.9°
Enters shadow 23:04:38 20° 124° (ESE) 1,852 3.6 -19.0°
